Wind_Speed
19 21 22 23 25 26 25 28 28 27 29 34 36 36 26 27 31 27 26 26 28 30
21 22 23 25 23 24 27 28 28 26 30 39 26 24 30 21 23 20 23 24 24 27
21 22 26 25 25 26 27 28 30 39 35 34 23 21 17 16 15 16 17 18 20 24
23 26 27 28 27 25 30 28 37 34 36 30 20 16 15 15 15 14 16 16 21 23
24 28 29 29 28 30 31 32 43 36 28 25 19 15 15 13 11 13 15 18 20 23
26 27 28 29 31 33 31 32 38 34 27 24 19 19 18 11 8 8 10 13 19 25
26 28 27 29 31 32 33 39 37 34 31 26 22 19 15 9 7 2 4 9 16 26
26 28 28 29 31 33 35 43 35 34 39 36 26 18 18 14 14 10 3 2 7 13
28 29 30 31 32 32 35 40 34 36 40 39 26 20 22 26 21 15 9 10 14 17
29 28 28 31 31 30 33 35 34 38 42 44 29 24 28 29 30 25 13 13 17 20
31 29 28 27 29 30 31 33 37 40 41 43 33 28 33 38 40 34 22 17 18 21
30 31 31 30 30 31 35 40 41 41 42 44 38 34 36 42 46 46 35 25 23 28
30 34 37 36 34 33 37 42 43 44 43 42 43 43 44 47 51 50 41 35 31 32
31 33 36 40 42 41 42 41 43 45 45 44 42 44 50 48 50 52 47 45 44 37
Wind_Direction
346 341 338 340 333 330 332 331 331 328 305 306 306 307 302 291 286 279 267 255 246 239
347 348 344 339 340 339 339 339 332 321 308 310 319 307 306 289 284 274 267 253 242 235
353 353 350 351 350 347 341 332 333 331 346 329 317 321 307 296 289 276 268 245 236 230
3 0 357 359 355 349 344 341 335 336 338 330 326 325 322 305 284 272 259 245 235 229
6 2 1 360 359 352 348 344 343 340 341 344 342 340 335 313 288 263 249 239 229 222
10 1 1 5 0 360 1 341 349 354 6 4 349 354 353 335 316 278 250 230 222 214
8 5 6 5 4 3 358 350 5 11 18 14 0 355 5 2 9 344 234 213 217 208
12 12 12 9 9 4 1 359 7 19 28 23 13 4 26 36 44 56 83 144 138 165
16 15 14 14 13 11 7 4 16 28 30 29 13 24 45 52 59 64 86 111 118 123
16 15 17 20 15 17 17 8 24 33 36 33 24 37 55 66 63 74 85 105 129 136
17 19 18 22 24 24 21 19 31 37 40 39 36 39 60 68 68 73 89 104 128 134
32 30 29 29 33 36 25 33 38 39 42 46 45 50 57 70 70 74 87 104 119 128
47 43 41 41 42 47 42 33 41 41 42 49 53 58 59 70 75 81 90 96 110 122
53 52 48 48 47 48 52 49 46 45 44 47 52 60 64 68 75 81 92 93 95 123
Height
1496 1490 1485 1481 1475 1468 1461 1455 1449 1445 1438 1433 1426 1420 1415 1413 1410 1408 1407 1408 1410 1414
1494 1489 1484 1478 1471 1463 1456 1450 1444 1440 1430 1421 1413 1409 1403 1400 1398 1396 1396 1397 1400 1404
1492 1488 1482 1475 1467 1459 1451 1445 1442 1434 1423 1410 1405 1400 1394 1391 1388 1387 1386 1388 1391 1395
1491 1486 1479 1472 1464 1454 1449 1444 1437 1425 1412 1404 1396 1391 1385 1381 1379 1378 1378 1380 1382 1386
1491 1485 1478 1470 1462 1454 1450 1439 1429 1417 1404 1396 1388 1382 1376 1373 1369 1368 1369 1371 1374 1378
1491 1484 1477 1470 1461 1455 1447 1434 1422 1411 1402 1392 1381 1376 1372 1368 1365 1362 1361 1362 1364 1368
1490 1484 1477 1470 1463 1454 1445 1432 1420 1411 1399 1389 1376 1373 1369 1363 1360 1357 1355 1355 1355 1357
1492 1485 1477 1469 1463 1454 1444 1431 1418 1409 1400 1388 1379 1373 1370 1363 1358 1354 1352 1351 1350 1352
1492 1486 1478 1470 1462 1454 1444 1435 1420 1409 1400 1389 1378 1375 1369 1364 1356 1353 1352 1351 1353 1355
1493 1487 1479 1472 1463 1455 1447 1438 1425 1412 1402 1393 1384 1379 1372 1362 1359 1355 1354 1355 1357 1360
1495 1489 1482 1474 1465 1458 1450 1441 1429 1418 1408 1398 1389 1384 1377 1367 1361 1357 1356 1358 1361 1365
1500 1493 1486 1478 1471 1462 1454 1444 1433 1424 1415 1406 1397 1390 1382 1372 1368 1364 1361 1363 1366 1371
1506 1500 1492 1485 1478 1470 1461 1451 1441 1431 1422 1415 1406 1397 1388 1380 1376 1372 1369 1371 1375 1380
1513 1507 1501 1494 1487 1479 1467 1460 1448 1440 1432 1423 1414 1407 1399 1390 1387 1385 1384 1382 1382 1389